www.pogodaiklimat.ru

Погода и климат >> Архив погоды >> Россия >> Якутия >> Тикси


АРХИВ ПОГОДЫ в Тикси

Время (UTC), дата Ветер
(напр.,м/с)
 
Видим.   Явления Облачность Т
(С)
Тd
(С)
f
(%)
Тe
(С)
Тes
(С)
Комфортность P
(гПа)
Po
(гПа)
Тmin
(С)
Tmax
(С)
R
(мм)
R24
(мм)
S
(см)
09 18.06 ЮВ 12-16
{18}
20 км 6/0
[Ci fib]
+11.4 +2.6 55 +7 +7 тепло 1012.1 1011.3
12 18.06 ЮВ 11-10
{16}
20 км 6/0
[Ci fib]
+11.5 +2.7 55 +8 +8 тепло 1010.8 1010.0 +11.6
15 18.06 Ю 3
{10}
20 км 4/0
[Ci fib]
+11.3 +3.8 60 +10 +10 тепло 1009.9 1009.1
18 18.06 СВ 2 20 км 3/0
[Ci fib]
+6.0 +2.0 75 +4 +4 тепло 1008.3 1007.5
21 18.06 С 2 20 км 3/0
[Ci fib]
+4.0 +1.4 83 +1 +4 по сезону 1007.0 1006.2
00 19.06 С 4 20 км 3/0
[Ci fib]
+5.3 +2.0 79 +1 +6 по сезону 1006.7 1005.9 +3.0
03 19.06 СВ 5 20 км 3/0
[Ci fib]
+5.9 +2.2 77 +2 +7 по сезону 1005.7 1004.9
06 19.06 СВ 5 20 км 3/0
[Ci fib]
+15.3 +4.9 50 +14 +18 тепло 1005.1 1004.3
09 19.06 СВ 5 20 км 6/3 1000 м
[Cu hum Ci fib]
+15.3 +4.9 50 +14 +16 тепло 1005.1 1004.3
12 19.06 С 13-17
{20}
20 км 10/3 200 м
[St Cs]
+11.5 +9.1 85 +7 +7 тепло 1012.2 1011.4 +26.7
15 19.06 С 3
{17}
20 км 10/0
[Ac cast Cs]
+7.2 +6.3 94 +4 +4 по сезону 1014.9 1014.1
18 19.06 СВ 3 20 км 6/0
[Ac und Ci fib]
+9.7 +6.7 82 +7 +8 тепло 1016.1 1015.3
21 19.06 СВ 4 20 км 10/0
[Ac trans Ci fib]
+8.8 +4.7 75 +6 +7 тепло 1017.2 1016.4
00 20.06 СВ 6 20 км 10/0
[Ac trans Cs]
+8.8 +4.7 75 +5 +7 по сезону 1017.9 1017.1 +6.6
03 20.06 В 4 20 км 8/0
[Ci fib]
+8.9 +5.8 81 +6 +12 по сезону 1018.1 1017.3
06 20.06 В 4 20 км 3/0
[Ci fib]
+6.9 +3.6 79 +3 +8 по сезону 1018.0 1017.2
09 20.06 СВ 3 20 км 9/0
[Ac trans Ci fib]
+3.5 +2.5 93 -1 +1 прохладно 1018.1 1017.2
12 20.06 СВ 3 500 м туман ?/? +1.7 +1.2 96 -3 -3 холодно 1017.7 1016.8 +9.4
15 20.06 СВ 2 50 м слаб. морось {туман} туман ?/? +1.3 +0.5 94 -2 -2 прохладно 1016.5 1015.6
18 20.06 штиль 0 50 м слаб. морось {туман} туман ?/? +1.0 +0.4 96 -0 -0 по сезону 1015.6 1014.7
21 20.06 СВ 3 200 м слаб. морось {туман} туман ?/? +0.9 +0.3 96 -4 -4 холодно 1014.7 1013.8
00 21.06 СВ 4 20 км {морось, туман} 9/4 100 м
[St Ci fib]
+1.9 +0.8 92 -3 -1 прохладно 1014.2 1013.3 +0.5 0.0
03 21.06 С 5 20 км 9/1 200 м
[St Ci fib]
+8.1 +3.9 75 +5 +8 по сезону 1012.8 1012.0
06 21.06 В 7
{10}
20 км 9/0
[Ac trans Ci fib]
+4.0 +2.2 88 -2 -0 холодно 1011.0 1010.2
09 21.06 СВ 3
{10}
20 км 10/0
[Ac trans Ci fib]
+12.9 +7.5 70 +12 +13 тепло 1010.8 1010.0
12 21.06 С 3
{13}
20 км 10/0
[Ac As Ci fib]
+12.8 +5.7 62 +12 +12 тепло 1009.7 1008.9 +17.9
15 21.06 С 6
{14}
20 км 10/0
[Ac As]
+6.5 +4.4 86 +2 +2 по сезону 1009.2 1008.4
18 21.06 С 3 20 км 10/0
[Ac trans Ci fib]
+5.2 +4.2 93 +2 +2 по сезону 1008.5 1007.7
21 21.06 СВ 1 20 км 8/0
[Ac trans Ci fib]
+10.1 +6.7 79 +10 +12 тепло 1008.3 1007.5
00 22.06 СВ 4 20 км 8/0
[Ci fib]
+6.0 +5.1 94 +2 +6 по сезону 1008.3 1007.5 +4.0
03 22.06 С 5 20 км 8/0
[Ci fib]
+9.0 +5.7 80 +6 +10 по сезону 1007.7 1006.9
06 22.06 СВ 5 20 км 10/4 600 м
[Sc Ci fib]
+10.5 +6.9 78 +8 +10 тепло 1007.6 1006.8
09 22.06 С 8-10
{12}
20 км 10/4 600 м
[Sc Ci fib]
+10.4 +9.4 94 +6 +7 по сезону 1008.2 1007.4
12 22.06 С 6
{10}
20 км 10/0
[Ac trans Ci fib]
+10.4 +9.2 92 +7 +7 тепло 1009.2 1008.4 +13.0
15 22.06 С 5 20 км 10/0
[Ac trans Cs]
+7.0 +6.3 95 +3 +3 по сезону 1010.5 1009.7
18 22.06 С 2 20 км 10/6 200 м
[Sc Ci fib]
+6.3 +5.6 95 +4 +4 по сезону 1011.8 1011.0
21 22.06 С 4 4000 м дымка 10/6 100 м
[St Ci fib]
+5.8 +5.3 97 +2 +2 по сезону 1012.0 1011.2
00 23.06 СВ 4 4000 м дымка 10/10 200 м
[St]
+4.4 +3.9 97 -0 -0 по сезону 1012.4 1011.6 +3.4
03 23.06 СВ 6 500 м туман ?/? +5.3 +5.0 98 0 0 прохладно 1012.8 1012.0
06 23.06 СВ 5 500 м туман ?/? +5.7 +5.2 97 +1 +1 прохладно 1012.4 1011.6
09 23.06 СВ 2 20 км {туман} 10/10 200 м
[St]
+7.6 +6.0 90 +5 +5 по сезону 1012.8 1012.0
12 23.06 СВ 2 20 км {туман} 10/10 200 м
[St]
+7.4 +6.0 91 +5 +5 по сезону 1013.6 1012.8 +7.9
15 23.06 СВ 2 500 м туман ?/? +5.4 +5.1 98 +3 +3 по сезону 1012.9 1012.1
18 23.06 СВ 3 200 м туман туман ?/? +5.0 +5.0 100 +1 +1 по сезону 1013.1 1012.3
21 23.06 В 2 200 м туман туман ?/? +4.3 +4.3 100 +1 +1 по сезону 1013.4 1012.6
00 24.06 В 2 200 м туман туман ?/? +6.0 +6.0 100 +3 +3 по сезону 1013.6 1012.8 +3.9 0.3
03 24.06 СВ 3 <100 м туман ?/? +6.5 +6.5 100 +3 +3 по сезону 1013.6 1012.8
06 24.06 В 1 500 м туман 9/5 100 м
[St Ci fib]
+9.8 +9.4 97 +9 +13 тепло 1012.9 1012.1
09 24.06 В 3 20 км {туман} 4/0
[Ci fib]
+11.0 +9.4 90 +9 +12 тепло 1012.4 1011.6
12 24.06 СВ 4 20 км дождь {туман} 3/3 100 м
[St]
+7.3 +6.8 97 +4 +4 по сезону 1012.3 1011.5 +11.8 0.0
15 24.06 штиль 0 1000 м дымка 6/4 200 м
[St Ci fib]
+5.1 +4.8 98 +4 +4 по сезону 1011.9 1011.1
18 24.06 ЮВ 2 1000 м дымка 6/6 200 м
[St]
+5.5 +5.2 98 +3 +3 по сезону 1011.4 1010.6
21 24.06 СВ 3 20 км 5/0
[Ci fib]
+7.3 +6.2 93 +4 +6 по сезону 1011.4 1010.6
00 25.06 СВ 2 20 км 10/0
[Ac trans Cs]
+8.1 +7.0 93 +6 +10 по сезону 1011.2 1010.4 +3.7
03 25.06 В 5 20 км 10/0
[Ac trans Ci fib]
+9.1 +6.9 86 +6 +9 по сезону 1010.9 1010.1
06 25.06 СВ 5 20 км 10/0
[Ac trans Ci fib]
+9.2 +6.8 85 +6 +9 по сезону 1010.3 1009.5

 

Местоположение метеостанции Тикси (Якутия, Россия): широта 71.58 долгота 128.90 высота над уровнем моря 7 м.

В архиве по умолчанию представлена погода в Тикси за последнюю неделю. Архивные данные за месяц целиком и за предыдущие месяцы, начиная с января 2011 года, Вы можете получить, выбрав интересующий диапазон дат из раскрывающегося списка и нажав кнопку "Ввод!".


*Определитесь, кто Вы:
робот инопланетянин человек

Внимание! Время в таблицах - всемирное. Для получения местного времени необходимо прибавить поправку, которая равна 9 ч.

Смотрите также архив погоды в соседних городах и на ближайших метеорологических станциях:

Погода на Мысе Быков (Якутия, Россия) (47 км)
Погода в Кюсюре (Якутия, Россия) (114 км)
Погода на Столб Острове (Якутия, Россия) (128 км)
Погода в Тюмяти (Якутия, Россия) (192 км)
Погода в Юбилейной (Якутия, Россия) (277 км)
Погода в Усть-Куйге (Якутия, Россия) (301 км)
Погода на Усть-Оленеке (Якутия, Россия) (346 км)
Погода в Джарджане (Якутия, Россия) (367 км)
Погода на Мысе Кигилях (Якутия, Россия) (413 км)
Погода в Батагай-Алыте (Якутия, Россия) (427 км)

Пояснения к столбцам:

Ветер - указаны скорость ветра в м/с - средняя за 10 мин, порывы в срок и между сроками (в фигурных скобках) и направление, откуда дует ветер: С - северный, СВ - северо-восточный, В - восточный, ЮВ - юго-восточный, Ю - южный, ЮЗ - юго-западный, З - западный, СЗ - северо-западный.
Видимость - горизонтальная дальность видимости в метрах или километрах. При видимости от 1 до 10 км при отсутствии осадков обычно наблюдается дымка, при ухудшении видимости до 1 км и менее - туман. В сухую погоду видимость может ухудшаться дымом, пылью или мглою.
Явления - указаны атмосферные явления, наблюдавшиеся в срок или в последний час перед сроком; фигурными скобками обозначены явления, наблюдавшиеся между сроками (за 1-3 часа до срока); квадратными скобками обозначены град или гололедные отложения с указанием их диаметра в мм.
Облачность - указаны через наклонную черту общая и нижняя облачность в баллах и высота нижней границы облаков в метрах; квадратными скобками обозначены формы облаков: Ci - перистые, Cs - перисто-слоистые, Cc - перисто-кучевые, Ac - высококучевые, As - высокослоистые, Sc - слоисто-кучевые, Ns - слоисто-дождевые, Cu - кучевые, Cb - кучево-дождевые. Подробнее классификацию облаков см. в Атласе облаков (PDF).
T - Температура воздуха - температура, измеренная на высоте 2 м над землей.
Td - Температура точки росы - температура, при понижении до которой содержащийся в воздухе водяной пар достигнет насыщения.
f - Относительная влажность воздуха - влажноcть воздуха, измеренная на высоте 2 м над землей.
Te - Эффективная температура - температура, которую ощущает одетый по сезону человек в тени. Характеристика душности погоды. При расчете учитывается влияние влажности воздуха и скорости ветра на теплоощущения человека.
Tes - Эффективная температура на солнце - температура, которую ощущает человек, с поправкой на солнечный нагрев. Характеристика знойности погоды. Зависит от высоты солнца над горизонтом, облачности и скорости ветра. Ночью, в пасмурную погоду, а также при ветре 12 м/с и более поправка равна нулю.
P - Атмосферное давление - приведенное к уровню моря атмосферное давление.
Po - Атмосферное давление - измеренное на уровне метеостанции атмосферное давление.
Tmin - Минимальная температура - минимум температуры воздуха на высоте 2 м над землей.
Tmax - Максимальная температура - максимум температуры воздуха на высоте 2 м над землей.
R - Количество осадков - Количество выпавших осадков за период времени, мм. При наведении курсора мыши на число - период времени, за который выпало указанное количество осадков.
R24 - Количество осадков - Количество выпавших осадков за 24 часа, мм.
S - Снежный покров - Высота снежного покрова, см. При наведении курсора мыши на число - состояние снежного покрова и степень покрытия местности в баллах.